GW4697 Weather Reports


Display with metric or nautical units.
time (UTC)temp
F
wind
direction
speed
MPH
gust
MPH
rain 1hr
in
rain 24hr
in
rain mn
in
humidity
%
barometer
mb
20260507134444 53 174 6.0 8.0 0.00 0.00 0.00 84 1023.3
20260507133940 53 165 5.0 6.0 0.00 0.00 0.00 85 1023.5
20260507133436 52 189 6.0 7.0 0.00 0.00 0.00 86 1023.1
20260507132935 53 171 6.0 7.0 0.00 0.00 0.00 87 1022.9
20260507132430 52 189 6.0 7.0 0.00 0.00 0.00 87 1023.0
20260507131927 52 140 6.0 7.0 0.00 0.00 0.00 88 1023.4
20260507131424 52 133 1.0 1.0 0.00 0.00 0.00 89 1023.3
20260507130921 51 172 3.0 3.0 0.00 0.00 0.00 89 1023.3
20260507130418 51 103 0.0 0.0 0.00 0.00 0.00 90 1023.1
20260507125917 51 102 0.0 1.0 0.00 0.00 0.00 90 1023.2
20260507125415 51 91 2.0 2.0 0.00 0.00 0.00 89 1023.2
20260507124912 51 88 0.0 1.0 0.00 0.00 0.00 90 1023.1
20260507124407 51 104 0.0 1.0 0.00 0.00 0.00 90 1023.1
20260507123906 50 140 2.0 2.0 0.00 0.00 0.00 91 1023.1
20260507123403 50 99 0.0 0.0 0.00 0.00 0.00 92 1022.9
20260507122859 50 115 1.0 1.0 0.00 0.00 0.00 93 1023.0
20260507122355 49 135 1.0 2.0 0.00 0.00 0.00 94 1023.0
20260507121851 48 99 0.0 0.0 0.00 0.00 0.00 95 1022.6
20260507121346 48 115 1.0 1.0 0.00 0.00 0.00 96 1022.6
20260507120844 48 113 0.0 0.0 0.00 0.00 0.00 96 1022.4
20260507120340 46 114 0.0 0.0 0.00 0.00 0.00 97 1022.4
20260507115836 46 116 0.0 0.0 0.00 0.00 0.00 97 1022.5
20260507115332 45 128 0.0 1.0 0.00 0.00 0.00 97 1022.4
20260507114827 45 133 1.0 1.0 0.00 0.00 0.00 97 1022.2
20260507114325 45 111 0.0 1.0 0.00 0.00 0.00 97 1022.1
20260507113823 45 76 0.0 1.0 0.00 0.00 0.00 97 1022.1
20260507113319 44 97 0.0 0.0 0.00 0.00 0.00 97 1022.1
20260507112817 44 97 0.0 0.0 0.00 0.00 0.00 97 1022.2
20260507112314 44 97 0.0 0.0 0.00 0.00 0.00 97 1022.1
20260507111812 45 99 0.0 0.0 0.00 0.00 0.00 96 1021.9
20260507111308 45 99 0.0 0.0 0.00 0.00 0.00 96 1021.9
20260507110804 46 145 1.0 2.0 0.00 0.00 0.00 97 1022.1
20260507110301 45 136 1.0 2.0 0.00 0.00 0.00 97 1021.9
20260507105758 45 128 1.0 1.0 0.00 0.00 0.00 97 1021.8
20260507105254 45 122 1.0 2.0 0.00 0.00 0.00 97 1022.0
20260507104751 45 109 0.0 0.0 0.00 0.00 0.00 97 1022.1
20260507104248 45 130 0.0 1.0 0.00 0.00 0.00 97 1022.0
20260507103744 45 114 0.0 1.0 0.00 0.00 0.00 97 1021.8
20260507103240 46 127 1.0 1.0 0.00 0.00 0.00 97 1021.7
20260507102737 46 115 0.0 1.0 0.00 0.00 0.00 97 1021.9
20260507102233 46 148 2.0 2.0 0.00 0.00 0.00 97 1021.7
20260507101729 46 114 1.0 1.0 0.00 0.00 0.00 97 1021.7
20260507101225 45 127 2.0 2.0 0.00 0.00 0.00 97 1021.5
20260507100722 44 107 0.0 0.0 0.00 0.00 0.00 97 1021.4
20260507100221 44 96 0.0 0.0 0.00 0.00 0.00 97 1021.5
20260507095718 44 95 0.0 0.0 0.00 0.00 0.00 96 1021.4
20260507095214 44 95 0.0 0.0 0.00 0.00 0.00 96 1021.3
20260507094711 44 94 0.0 0.0 0.00 0.00 0.00 96 1021.4
20260507094208 45 131 1.0 1.0 0.00 0.00 0.00 96 1021.4
20260507093705 45 153 1.0 1.0 0.00 0.00 0.00 96 1021.2
20260507093204 45 119 0.0 1.0 0.00 0.00 0.00 96 1021.3
20260507092700 44 89 1.0 1.0 0.00 0.00 0.00 96 1021.2
20260507092151 44 87 0.0 0.0 0.00 0.00 0.00 96 1021.1
20260507091648 44 71 0.0 1.0 0.00 0.00 0.00 96 1021.2
20260507091144 45 117 0.0 0.0 0.00 0.00 0.00 96 1021.1
20260507090639 45 119 1.0 1.0 0.00 0.00 0.00 96 1020.9
20260507090137 46 107 0.0 0.0 0.00 0.00 0.00 96 1020.7
20260507085633 46 121 0.0 0.0 0.00 0.00 0.00 96 1020.6
20260507085130 46 122 0.0 0.0 0.00 0.00 0.00 96 1020.7
20260507084627 46 110 1.0 1.0 0.00 0.00 0.00 96 1020.6
20260507084124 46 105 0.0 1.0 0.00 0.00 0.00 96 1020.7
20260507083620 46 105 0.0 0.0 0.00 0.00 0.00 96 1020.6
20260507083117 46 103 0.0 0.0 0.00 0.00 0.00 96 1020.3
20260507082613 46 102 0.0 1.0 0.00 0.00 0.00 96 1020.3
20260507082110 46 41 1.0 1.0 0.00 0.00 0.00 95 1020.2
20260507081606 46 119 1.0 1.0 0.00 0.00 0.00 95 1020.4
20260507081103 46 174 1.0 2.0 0.00 0.00 0.00 95 1020.2
20260507080559 47 134 1.0 2.0 0.00 0.00 0.00 95 1020.4
20260507080055 47 256 2.0 2.0 0.00 0.00 0.00 95 1020.5
20260507075550 47 133 1.0 1.0 0.00 0.00 0.00 95 1020.4
20260507075047 47 103 0.0 1.0 0.00 0.00 0.00 95 1020.5
20260507074544 47 89 0.0 0.0 0.00 0.00 0.00 95 1020.6
20260507074043 47 74 0.0 1.0 0.00 0.00 0.00 95 1020.3
20260507073538 47 66 0.0 0.0 0.00 0.00 0.00 95 1020.3
20260507073035 47 53 1.0 1.0 0.00 0.00 0.00 95 1020.5
20260507072533 47 135 1.0 1.0 0.00 0.00 0.00 95 1020.6
20260507072030 47 105 0.0 1.0 0.00 0.00 0.00 95 1020.8
20260507071527 48 115 1.0 1.0 0.00 0.00 0.00 95 1020.7
20260507071024 48 119 0.0 1.0 0.00 0.00 0.00 95 1020.8
20260507070521 48 117 0.0 0.0 0.00 0.00 0.00 95 1020.7
20260507070018 47 110 0.0 0.0 0.00 0.00 0.00 95 1020.8
20260507065514 47 108 0.0 0.0 0.00 0.00 0.00 95 1020.9
20260507065011 47 121 1.0 1.0 0.00 0.00 0.00 95 1020.8
20260507064509 47 127 0.0 1.0 0.00 0.00 0.00 95 1020.6
20260507064007 47 123 0.0 0.0 0.00 0.00 0.00 95 1020.5
20260507063504 47 123 0.0 0.0 0.00 0.00 0.00 95 1020.3
20260507063001 47 118 0.0 0.0 0.00 0.00 0.00 94 1020.5
20260507062458 47 118 0.0 0.0 0.00 0.00 0.00 94 1020.3
20260507061955 48 122 0.0 0.0 0.00 0.00 0.00 94 1020.2
20260507061453 48 122 0.0 0.0 0.00 0.00 0.00 94 1020.4
20260507060951 48 118 0.0 0.0 0.00 0.00 0.00 94 1020.3
20260507060448 48 119 0.0 1.0 0.00 0.00 0.00 94 1020.3
20260507055944 49 114 0.0 0.0 0.00 0.00 0.00 94 1020.5
20260507055440 49 121 2.0 2.0 0.00 0.00 0.00 94 1020.3
20260507054937 49 105 1.0 2.0 0.00 0.00 0.00 95 1020.1
20260507054433 49 64 1.0 1.0 0.00 0.00 0.00 95 1020.0
20260507053930 49 67 0.0 0.0 0.00 0.00 0.00 95 1019.9
20260507053428 48 81 0.0 1.0 0.00 0.00 0.00 95 1020.0
20260507052926 48 123 0.0 0.0 0.00 0.00 0.00 95 1019.9
20260507052423 48 123 0.0 0.0 0.00 0.00 0.00 95 1020.2
20260507051920 47 123 0.0 0.0 0.00 0.00 0.00 95 1019.9
20260507051418 47 123 0.0 0.0 0.00 0.00 0.00 95 1020.0
20260507050915 47 123 1.0 1.0 0.00 0.00 0.00 95 1020.1
20260507050411 47 123 0.0 0.0 0.00 0.00 0.00 94 1019.8
20260507045908 47 123 0.0 0.0 0.00 0.00 0.00 94 1020.2
20260507045405 48 123 0.0 0.0 0.00 0.00 0.00 94 1020.1
20260507044902 48 124 0.0 0.0 0.00 0.00 0.00 94 1020.1
20260507044358 48 124 0.0 0.0 0.00 0.00 0.00 94 1020.2
20260507043854 48 123 0.0 0.0 0.00 0.00 0.00 94 1020.2
20260507043351 48 123 0.0 0.0 0.00 0.00 0.00 94 1020.2
20260507042847 48 123 0.0 0.0 0.00 0.00 0.00 93 1020.1
20260507042343 49 123 0.0 1.0 0.00 0.00 0.00 93 1020.1
20260507041840 49 123 0.0 1.0 0.00 0.00 0.00 93 1020.1
20260507041337 50 124 0.0 0.0 0.00 0.00 0.00 93 1020.0
20260507040834 50 124 0.0 0.0 0.00 0.00 0.00 93 1020.1
20260507040330 50 124 0.0 1.0 0.00 0.00 0.00 92 1020.1
20260507035826 50 124 0.0 0.0 0.00 0.00 0.00 93 1019.9
20260507035321 50 124 0.0 0.0 0.00 0.00 0.00 93 1019.8
20260507034820 50 124 0.0 0.0 0.00 0.00 0.00 93 1019.9
20260507034316 50 123 0.0 0.0 0.00 0.00 0.00 93 1019.8
20260507033814 49 122 0.0 0.0 0.00 0.00 0.00 93 1019.9
20260507033312 50 122 0.0 0.0 0.00 0.00 0.00 93 1019.7
20260507032809 50 122 0.0 0.0 0.00 0.00 0.00 93 1019.7
20260507032306 50 122 0.0 0.0 0.00 0.00 0.00 93 1019.9
20260507031801 51 123 0.0 0.0 0.00 0.00 0.00 93 1019.9
20260507031258 51 122 0.0 0.0 0.00 0.00 0.00 92 1019.6
20260507030755 51 122 0.0 0.0 0.00 0.00 0.00 92 1019.8
20260507030252 51 122 1.0 1.0 0.00 0.00 0.00 92 1019.8
20260507025749 51 121 0.0 0.0 0.00 0.00 0.00 92 1019.5
20260507025246 51 121 0.0 0.0 0.00 0.00 0.00 92 1019.6
20260507024745 51 118 0.0 1.0 0.00 0.00 0.00 93 1019.4
20260507024241 51 114 0.0 0.0 0.00 0.00 0.00 93 1019.3
20260507023737 51 113 0.0 0.0 0.00 0.00 0.00 93 1019.2
20260507023234 51 108 0.0 0.0 0.00 0.00 0.00 94 1019.4
20260507022731 50 108 0.0 0.0 0.00 0.00 0.00 93 1019.1
20260507022227 50 108 0.0 0.0 0.00 0.00 0.00 93 1019.2
20260507021724 50 108 0.0 0.0 0.00 0.00 0.00 93 1019.2
20260507021219 51 108 0.0 0.0 0.00 0.00 0.00 93 1018.9
20260507020718 51 108 0.0 0.0 0.00 0.00 0.00 93 1018.9
20260507020214 51 108 0.0 0.0 0.00 0.00 0.00 93 1018.8
20260507015712 51 110 0.0 0.0 0.00 0.21 0.21 92 1018.8
20260507015209 51 110 0.0 1.0 0.00 0.21 0.21 92 1019.0
20260507014705 51 93 0.0 0.0 0.00 0.21 0.21 92 1018.8
20260507014201 51 112 1.0 1.0 0.00 0.21 0.21 92 1018.9
20260507013658 51 111 0.0 0.0 0.00 0.21 0.21 92 1018.7
20260507013156 51 90 0.0 0.0 0.00 0.21 0.21 91 1018.6
20260507012653 52 106 0.0 0.0 0.00 0.21 0.21 91 1018.8
20260507012148 52 108 1.0 1.0 0.00 0.21 0.21 91 1018.7
20260507011647 52 79 0.0 0.0 0.00 0.21 0.21 91 1018.9
20260507011142 52 96 0.0 0.0 0.00 0.21 0.21 91 1018.9
20260507010637 52 107 0.0 0.0 0.00 0.21 0.21 91 1018.9
20260507010133 53 115 0.0 0.0 0.00 0.21 0.21 90 1018.8
20260507005631 53 113 0.0 1.0 0.00 0.21 0.21 90 1019.0
20260507005122 53 105 0.0 0.0 0.00 0.21 0.21 90 1018.9
20260507004619 53 116 1.0 1.0 0.00 0.21 0.21 89 1018.8
20260507004116 53 77 0.0 0.0 0.00 0.21 0.21 89 1019.2
20260507003612 53 110 0.0 0.0 0.00 0.21 0.21 89 1018.8
20260507003107 53 123 1.0 2.0 0.00 0.21 0.21 89 1018.8
20260507002604 53 134 1.0 2.0 0.00 0.21 0.21 90 1018.8
20260507002059 54 96 0.0 0.0 0.00 0.21 0.21 90 1018.6
20260507001557 54 73 0.0 1.0 0.00 0.21 0.21 90 1018.8
20260507001054 54 142 2.0 2.0 0.00 0.21 0.21 90 1018.6
20260507000550 55 106 0.0 0.0 0.00 0.21 0.21 88 1018.8
20260507000046 55 100 0.0 0.0 0.00 0.21 0.21 88 1018.6
20260506235544 55 110 1.0 1.0 0.00 0.21 0.21 88 1018.5
20260506235039 55 117 1.0 1.0 0.00 0.21 0.21 88 1018.4
20260506234537 55 148 4.0 4.0 0.00 0.21 0.21 88 1018.2
20260506234033 54 130 4.0 4.0 0.00 0.21 0.21 90 1018.4
20260506233530 54 99 0.0 0.0 0.00 0.21 0.21 89 1018.3
20260506233021 54 96 0.0 1.0 0.00 0.21 0.21 89 1018.5
20260506232517 55 59 1.0 1.0 0.00 0.21 0.21 89 1018.3
20260506232013 55 34 1.0 2.0 0.00 0.21 0.21 89 1018.1
20260506231511 55 60 0.0 1.0 0.00 0.21 0.21 89 1018.1
20260506231009 55 74 0.0 0.0 0.00 0.21 0.21 88 1017.9
20260506230504 55 82 0.0 0.0 0.00 0.21 0.21 88 1017.8
20260506230001 55 125 1.0 2.0 0.00 0.21 0.21 88 1017.9
20260506225458 55 111 2.0 3.0 0.00 0.21 0.21 87 1017.9
20260506224954 55 356 1.0 2.0 0.00 0.21 0.21 87 1018.1
20260506224451 56 103 1.0 2.0 0.00 0.21 0.21 87 1017.6
20260506223948 56 201 5.0 6.0 0.00 0.21 0.21 87 1017.9
20260506223444 56 140 1.0 2.0 0.00 0.21 0.21 88 1017.7
20260506222941 56 39 3.0 3.0 0.00 0.21 0.21 88 1017.6
20260506222438 56 152 2.0 3.0 0.00 0.21 0.21 88 1017.8
20260506221934 56 262 4.0 4.0 0.00 0.21 0.21 89 1017.6
20260506221431 56 142 3.0 4.0 0.00 0.21 0.21 89 1017.4
20260506220930 56 156 1.0 2.0 0.00 0.21 0.21 89 1017.5
20260506220425 56 93 1.0 1.0 0.00 0.21 0.21 88 1017.6
20260506215921 56 154 2.0 4.0 0.00 0.21 0.21 88 1017.7
20260506215418 57 66 1.0 2.0 0.00 0.21 0.21 88 1017.5
20260506214913 57 111 0.0 0.0 0.00 0.21 0.21 87 1017.1
20260506214411 57 122 2.0 2.0 0.00 0.21 0.21 87 1017.2
20260506213908 57 212 3.0 4.0 0.00 0.21 0.21 87 1017.1
20260506213406 57 43 1.0 1.0 0.00 0.21 0.21 87 1016.9
20260506212903 57 194 2.0 3.0 0.00 0.21 0.21 86 1016.9
20260506212359 57 219 3.0 3.0 0.00 0.21 0.21 86 1016.7
20260506211853 57 135 1.0 1.0 0.00 0.21 0.21 86 1016.9
20260506211350 57 214 3.0 3.0 0.00 0.21 0.21 86 1016.7
20260506210842 57 223 6.0 8.0 0.00 0.21 0.21 86 1016.8
20260506210339 58 226 4.0 7.0 0.00 0.21 0.21 86 1016.8
20260506205836 58 319 4.0 4.0 0.00 0.21 0.21 86 1016.7
20260506205331 58 106 1.0 1.0 0.00 0.21 0.21 87 1016.8
20260506204823 58 48 2.0 2.0 0.00 0.21 0.21 87 1016.9
20260506204320 58 151 1.0 1.0 0.00 0.21 0.21 87 1016.8
20260506203818 58 206 3.0 4.0 0.00 0.21 0.21 87 1016.8
20260506203315 58 243 4.0 6.0 0.00 0.21 0.21 87 1016.6
20260506202812 58 163 2.0 3.0 0.00 0.21 0.21 88 1016.6
20260506202309 58 121 1.0 1.0 0.00 0.21 0.21 89 1016.4
20260506201805 58 214 3.0 3.0 0.00 0.21 0.21 89 1016.6
20260506201302 58 232 2.0 4.0 0.00 0.21 0.21 89 1016.8
20260506200759 57 261 5.0 8.0 0.00 0.21 0.21 90 1016.7
20260506200255 57 233 2.0 3.0 0.00 0.21 0.21 91 1016.4
20260506195752 58 184 7.0 10.0 0.00 0.21 0.21 92 1016.6
20260506195249 58 228 4.0 6.0 0.00 0.21 0.21 91 1016.4
20260506194746 58 170 6.0 9.0 0.00 0.21 0.21 90 1016.6
20260506194242 59 205 5.0 7.0 0.00 0.21 0.21 91 1016.2
20260506193740 58 203 2.0 3.0 0.00 0.21 0.21 92 1016.5
20260506193236 59 280 4.0 4.0 0.00 0.21 0.21 92 1016.4
20260506192733 59 61 0.0 0.0 0.00 0.21 0.21 92 1016.2
20260506192230 59 54 2.0 3.0 0.00 0.21 0.21 92 1016.1
20260506191727 58 307 2.0 3.0 0.00 0.21 0.21 92 1016.1
20260506191223 58 104 2.0 2.0 0.00 0.21 0.21 96 1015.9
20260506190720 58 152 2.0 2.0 0.00 0.21 0.21 98 1015.9
20260506190217 58 213 5.0 8.0 0.00 0.21 0.21 99 1015.9
20260506185715 57 227 3.0 4.0 0.00 0.21 0.21 99 1015.6
20260506185210 58 68 2.0 4.0 0.00 0.21 0.21 99 1015.7
20260506184708 58 225 1.0 2.0 0.00 0.21 0.21 99 1015.7
20260506184205 57 260 4.0 6.0 0.00 0.21 0.21 99 1015.4
20260506183701 57 266 4.0 6.0 0.00 0.21 0.21 99 1015.4
20260506183157 58 330 1.0 1.0 0.00 0.21 0.21 99 1015.0
20260506182655 58 290 2.0 4.0 0.00 0.21 0.21 99 1015.3
20260506182151 58 297 2.0 2.0 0.00 0.21 0.21 99 1015.0
20260506181644 58 86 1.0 1.0 0.00 0.21 0.21 99 1015.1
20260506181141 57 43 3.0 3.0 0.00 0.21 0.21 99 1015.3
20260506180638 58 320 3.0 8.0 0.00 0.21 0.21 99 1015.1
20260506180134 58 16 3.0 3.0 0.00 0.21 0.21 99 1015.0
20260506175630 59 261 4.0 6.0 0.00 0.21 0.21 99 1015.3
20260506175125 59 328 5.0 7.0 0.05 0.21 0.21 99 1014.9
20260506174620 58 345 4.0 6.0 0.05 0.21 0.21 99 1015.0
20260506174116 58 308 5.0 7.0 0.00 0.20 0.20 99 1014.9
20260506173614 58 333 10.0 14.0 0.00 0.20 0.20 99 1015.0
20260506173110 59 313 2.0 3.0 0.00 0.20 0.20 99 1015.1
20260506172608 58 344 6.0 9.0 0.00 0.20 0.20 99 1014.7
20260506172103 58 342 7.0 9.0 0.00 0.20 0.20 99 1015.0
20260506171601 58 333 6.0 8.0 0.07 0.20 0.20 99 1014.9
20260506171059 58 341 10.0 13.0 0.12 0.20 0.20 99 1014.8
20260506170555 57 38 9.0 13.0 0.05 0.19 0.19 99 1014.7
20260506170047 58 12 9.0 11.0 0.07 0.18 0.18 99 1014.6
20260506165546 58 280 9.0 11.0 0.19 0.18 0.18 99 1014.6
20260506165042 57 337 10.0 15.0 0.31 0.17 0.17 99 1014.5
20260506164539 57 359 6.0 8.0 0.19 0.15 0.15 99 1014.4
20260506164036 57 347 10.0 13.0 0.07 0.13 0.13 99 1014.4
20260506163532 57 344 6.0 7.0 0.00 0.12 0.12 99 1014.4
20260506163027 58 359 7.0 10.0 0.00 0.12 0.12 99 1014.5
20260506162524 58 1 10.0 11.0 0.00 0.12 0.12 99 1014.4
20260506162015 57 358 10.0 11.0 0.00 0.12 0.12 99 1014.1
20260506161512 58 30 8.0 10.0 0.05 0.12 0.12 99 1014.1
20260506161004 58 356 11.0 15.0 0.12 0.12 0.12 99 1013.9
20260506160502 58 331 11.0 13.0 0.07 0.11 0.11 99 1014.1
20260506155958 58 333 9.0 10.0 0.00 0.10 0.10 99 1014.1
20260506155456 58 21 6.0 8.0 0.00 0.10 0.10 99 1014.1
20260506153623 58 20 10.0 11.0 0.00 0.10 0.10 99 1013.9
20260506153120 58 11 7.0 9.0 0.00 0.10 0.10 99 1014.0
20260506152617 58 321 9.0 13.0 0.00 0.10 0.10 99 1013.7
20260506152115 57 349 9.0 10.0 0.00 0.10 0.10 99 1013.6
20260506151613 57 13 18.0 21.0 0.00 0.10 0.10 99 1013.5
20260506151109 57 12 13.0 15.0 0.00 0.10 0.10 99 1013.5
20260506150606 57 358 8.0 11.0 0.00 0.10 0.10 99 1013.4
20260506145600 57 12 9.0 15.0 0.00 0.10 0.10 99 1013.3
20260506145057 57 332 9.0 15.0 0.00 0.10 0.10 99 1013.5
20260506144554 57 350 8.0 10.0 0.00 0.10 0.10 99 1013.4
20260506144051 57 22 6.0 8.0 0.05 0.10 0.10 99 1013.3
20260506143549 57 348 6.0 9.0 0.05 0.10 0.10 99 1013.3
20260506143047 57 22 6.0 9.0 0.00 0.09 0.09 99 1013.2
20260506142544 57 345 7.0 10.0 0.00 0.09 0.09 99 1013.2
20260506142042 57 299 8.0 9.0 0.07 0.09 0.09 99 1013.3
20260506141540 57 313 8.0 11.0 0.07 0.09 0.09 99 1013.4
20260506141038 57 334 8.0 11.0 0.00 0.08 0.08 99 1013.3
20260506140535 57 1 9.0 11.0 0.05 0.08 0.08 99 1013.1
20260506140032 57 12 7.0 9.0 0.05 0.08 0.08 99 1013.0
20260506135529 57 332 8.0 13.0 0.00 0.07 0.07 99 1012.6
20260506135025 57 9 7.0 13.0 0.12 0.07 0.07 98 1012.5